Precipitable_Water
0.26 0.34 0.31 0.29 0.29 0.31 0.36 0.41 0.48 0.57 0.58 0.58 0.59 0.58 0.57 0.57 0.58 0.59 0.61 0.62 0.61 0.60 0.63 0.65 0.68 0.71 0.70 0.71 0.73 0.71 0.66 0.69 0.57 0.63 0.75 0.82 0.88 0.96 1.12 1.30 1.28 1.33 1.39
0.25 0.28 0.26 0.24 0.25 0.25 0.26 0.29 0.34 0.46 0.57 0.58 0.58 0.58 0.57 0.58 0.57 0.55 0.56 0.59 0.60 0.59 0.59 0.60 0.62 0.65 0.66 0.69 0.69 0.68 0.68 0.70 0.68 0.64 0.74 0.79 0.77 0.80 1.03 1.26 1.28 1.29 1.33
0.26 0.25 0.23 0.22 0.23 0.23 0.23 0.26 0.24 0.25 0.30 0.40 0.50 0.55 0.57 0.58 0.59 0.60 0.58 0.56 0.55 0.57 0.57 0.58 0.57 0.58 0.57 0.58 0.60 0.62 0.65 0.68 0.70 0.68 0.67 0.72 0.77 0.76 0.86 1.04 1.12 1.13 1.17
0.24 0.21 0.21 0.21 0.22 0.22 0.22 0.22 0.22 0.21 0.22 0.22 0.24 0.30 0.37 0.48 0.52 0.55 0.57 0.58 0.58 0.57 0.58 0.58 0.59 0.58 0.57 0.58 0.58 0.57 0.57 0.58 0.60 0.60 0.61 0.61 0.62 0.70 0.75 0.88 0.89 1.01 1.01
0.24 0.21 0.20 0.20 0.21 0.21 0.21 0.20 0.21 0.20 0.20 0.20 0.19 0.19 0.22 0.22 0.23 0.25 0.34 0.42 0.50 0.56 0.58 0.59 0.59 0.61 0.61 0.62 0.60 0.60 0.58 0.56 0.56 0.56 0.55 0.54 0.57 0.57 0.59 0.71 0.80 0.91 0.91
0.22 0.18 0.18 0.19 0.19 0.19 0.20 0.21 0.19 0.18 0.17 0.17 0.18 0.18 0.18 0.21 0.21 0.19 0.18 0.18 0.20 0.22 0.28 0.36 0.49 0.55 0.60 0.63 0.65 0.66 0.66 0.59 0.56 0.53 0.52 0.49 0.50 0.52 0.58 0.65 0.73 0.76 0.77
0.19 0.19 0.18 0.18 0.18 0.19 0.20 0.21 0.19 0.17 0.16 0.16 0.15 0.16 0.16 0.18 0.20 0.19 0.17 0.16 0.15 0.16 0.16 0.17 0.19 0.23 0.27 0.36 0.47 0.54 0.57 0.60 0.62 0.61 0.55 0.52 0.50 0.51 0.54 0.56 0.62 0.68 0.69
0.20 0.20 0.19 0.18 0.18 0.19 0.20 0.20 0.20 0.19 0.17 0.15 0.15 0.15 0.15 0.17 0.18 0.19 0.17 0.16 0.13 0.13 0.14 0.14 0.15 0.16 0.18 0.20 0.22 0.22 0.24 0.28 0.32 0.40 0.44 0.47 0.51 0.53 0.56 0.55 0.56 0.62 0.66
0.20 0.21 0.20 0.19 0.19 0.19 0.19 0.19 0.21 0.20 0.20 0.19 0.18 0.16 0.14 0.15 0.16 0.17 0.17 0.14 0.13 0.12 0.13 0.14 0.13 0.13 0.14 0.14 0.14 0.14 0.16 0.18 0.22 0.22 0.21 0.22 0.24 0.27 0.31 0.32 0.36 0.39 0.46
0.20 0.22 0.22 0.21 0.20 0.20 0.21 0.21 0.21 0.23 0.22 0.22 0.20 0.19 0.17 0.15 0.16 0.16 0.16 0.15 0.13 0.13 0.13 0.14 0.14 0.13 0.13 0.13 0.12 0.12 0.11 0.13 0.14 0.14 0.15 0.15 0.18 0.17 0.18 0.18 0.20 0.16 0.17
0.21 0.22 0.21 0.21 0.21 0.21 0.22 0.24 0.24 0.23 0.22 0.22 0.21 0.21 0.20 0.18 0.17 0.17 0.16 0.16 0.15 0.14 0.14 0.14 0.15 0.15 0.14 0.13 0.13 0.13 0.13 0.14 0.13 0.12 0.13 0.13 0.13 0.14 0.15 0.16 0.17 0.19 0.15
0.20 0.21 0.21 0.20 0.21 0.21 0.21 0.22 0.24 0.24 0.22 0.22 0.21 0.19 0.18 0.18 0.18 0.18 0.17 0.17 0.17 0.15 0.15 0.15 0.16 0.16 0.15 0.15 0.13 0.14 0.13 0.13 0.13 0.12 0.11 0.11 0.12 0.13 0.13 0.14 0.15 0.17 0.21
0.20 0.20 0.21 0.22 0.21 0.22 0.22 0.23 0.23 0.22 0.21 0.20 0.20 0.19 0.18 0.17 0.17 0.17 0.17 0.17 0.18 0.19 0.18 0.18 0.17 0.16 0.16 0.15 0.15 0.13 0.12 0.12 0.11 0.10 0.10 0.10 0.12 0.12 0.13 0.12 0.14 0.13 0.15
0.20 0.22 0.21 0.21 0.22 0.23 0.21 0.19 0.19 0.19 0.21 0.20 0.17 0.17 0.17 0.16 0.16 0.16 0.16 0.17 0.18 0.19 0.20 0.19 0.18 0.18 0.16 0.15 0.15 0.14 0.13 0.12 0.12 0.11 0.11 0.11 0.11 0.11 0.11 0.11 0.11 0.10 0.10
0.21 0.22 0.21 0.21 0.20 0.19 0.19 0.18 0.16 0.16 0.17 0.17 0.19 0.17 0.15 0.14 0.16 0.17 0.17 0.16 0.18 0.19 0.19 0.18 0.17 0.16 0.15 0.14 0.14 0.14 0.13 0.12 0.11 0.11 0.11 0.10 0.10 0.10 0.10 0.10 0.10 0.09 0.08
0.22 0.22 0.21 0.20 0.21 0.19 0.16 0.15 0.18 0.17 0.17 0.16 0.16 0.17 0.17 0.17 0.17 0.18 0.18 0.18 0.18 0.19 0.17 0.16 0.15 0.15 0.14 0.14 0.13 0.13 0.13 0.13 0.12 0.12 0.11 0.10 0.09 0.09 0.10 0.09 0.10 0.09 0.08
0.22 0.21 0.21 0.20 0.20 0.20 0.20 0.19 0.17 0.18 0.19 0.18 0.17 0.17 0.17 0.17 0.18 0.18 0.19 0.20 0.18 0.17 0.16 0.16 0.15 0.15 0.14 0.14 0.13 0.13 0.12 0.13 0.13 0.12 0.11 0.11 0.10 0.09 0.09 0.09 0.08 0.08 0.07
0.23 0.21 0.19 0.20 0.20 0.19 0.19 0.19 0.20 0.18 0.18 0.19 0.19 0.18 0.18 0.19 0.20 0.19 0.19 0.19 0.18 0.17 0.16 0.15 0.15 0.15 0.14 0.13 0.13 0.12 0.12 0.12 0.12 0.11 0.12 0.11 0.10 0.09 0.09 0.08 0.08 0.08 0.07
0.21 0.21 0.22 0.22 0.21 0.20 0.19 0.19 0.18 0.18 0.18 0.19 0.20 0.20 0.18 0.21 0.22 0.21 0.20 0.18 0.17 0.16 0.16 0.15 0.15 0.14 0.13 0.13 0.12 0.12 0.11 0.11 0.11 0.10 0.10 0.10 0.10 0.09 0.09 0.09 0.08 0.08 0.08
0.21 0.22 0.23 0.21 0.19 0.18 0.19 0.19 0.18 0.18 0.18 0.19 0.19 0.17 0.16 0.21 0.20 0.19 0.19 0.17 0.17 0.16 0.15 0.14 0.14 0.13 0.12 0.12 0.11 0.10 0.10 0.09 0.09 0.09 0.09 0.09 0.09 0.09 0.09 0.09 0.08 0.08 0.07
0.26 0.23 0.25 0.25 0.22 0.20 0.19 0.18 0.18 0.18 0.18 0.19 0.19 0.18 0.18 0.19 0.19 0.18 0.18 0.17 0.16 0.15 0.14 0.13 0.12 0.12 0.11 0.11 0.09 0.09 0.09 0.08 0.09 0.09 0.08 0.08 0.08 0.08 0.09 0.09 0.08 0.08 0.07
0.26 0.23 0.20 0.19 0.19 0.19 0.19 0.18 0.18 0.19 0.17 0.18 0.20 0.19 0.18 0.19 0.18 0.17 0.17 0.16 0.15 0.15 0.14 0.13 0.12 0.11 0.10 0.09 0.08 0.08 0.08 0.08 0.08 0.08 0.07 0.07 0.07 0.08 0.09 0.09 0.08 0.08 0.08
0.22 0.22 0.21 0.21 0.22 0.19 0.20 0.18 0.18 0.18 0.19 0.18 0.18 0.19 0.19 0.18 0.18 0.17 0.16 0.15 0.14 0.13 0.13 0.12 0.11 0.10 0.09 0.08 0.08 0.08 0.08 0.08 0.07 0.07 0.07 0.07 0.07 0.07 0.08 0.09 0.08 0.07 0.07
0.25 0.24 0.21 0.20 0.19 0.19 0.19 0.18 0.20 0.19 0.18 0.18 0.19 0.18 0.18 0.17 0.17 0.16 0.16 0.14 0.13 0.12 0.11 0.11 0.10 0.09 0.08 0.08 0.07 0.08 0.08 0.08 0.07 0.08 0.08 0.08 0.07 0.07 0.08 0.09 0.08 0.07 0.07
0.25 0.24 0.22 0.23 0.21 0.20 0.20 0.22 0.20 0.19 0.19 0.18 0.18 0.19 0.18 0.17 0.16 0.15 0.15 0.13 0.12 0.11 0.10 0.10 0.09 0.08 0.08 0.07 0.08 0.08 0.07 0.07 0.07 0.07 0.08 0.08 0.08 0.08 0.08 0.09 0.08 0.07 0.08
0.26 0.27 0.26 0.24 0.22 0.22 0.22 0.20 0.19 0.19 0.18 0.19 0.19 0.18 0.17 0.16 0.15 0.14 0.13 0.12 0.10 0.09 0.09 0.09 0.08 0.08 0.08 0.08 0.08 0.07 0.07 0.07 0.07 0.07 0.08 0.08 0.08 0.09 0.08 0.07 0.08 0.07 0.07
Wind_Speed
20 19 19 20 21 20 20 20 20 19 18 15 15 15 15 15 13 12 11 9 8 7 9 11 16 21 25 27 28 29 33 34 39 39 40 41 40 36 33 44 40 38 38
17 16 17 18 18 18 17 17 17 18 19 19 18 17 16 17 16 15 13 11 10 9 7 5 7 11 14 18 22 25 27 29 29 31 34 34 34 36 32 22 29 31 34
13 13 15 14 15 16 16 16 16 16 17 18 20 21 21 20 18 17 16 14 13 12 10 8 7 5 7 11 14 18 21 24 25 27 29 31 32 31 33 29 28 33 31
11 11 11 11 12 12 13 15 16 18 18 19 18 19 21 22 22 22 20 17 16 16 13 12 10 9 7 5 6 9 13 17 20 22 24 26 30 31 32 28 27 27 30
9 8 9 10 10 10 10 13 14 16 17 18 19 19 20 21 21 22 21 22 21 19 17 17 15 12 12 10 6 4 3 7 12 16 18 21 24 28 28 30 30 28 27
8 7 7 6 7 7 8 10 12 13 15 17 18 18 19 19 21 22 22 22 21 20 19 18 18 17 15 14 12 10 7 3 4 7 10 13 17 21 24 28 28 29 25
7 6 5 4 5 5 7 8 10 12 14 15 16 17 18 18 19 19 20 21 21 22 22 20 19 18 16 15 14 14 13 10 5 4 6 8 11 15 19 22 24 26 26
8 7 5 4 3 4 4 6 8 10 12 14 15 16 17 18 18 18 19 19 20 21 21 21 20 20 19 17 14 14 13 13 12 9 6 6 9 12 14 16 20 23 23
9 8 7 6 4 3 3 4 6 7 9 11 13 14 15 16 17 17 16 17 17 19 19 20 20 20 20 19 17 15 14 14 13 12 11 9 9 10 11 13 15 18 21
11 10 9 7 6 5 4 4 5 6 7 8 10 11 13 14 16 16 15 14 15 15 16 17 19 19 19 18 17 16 15 15 14 14 13 13 13 12 12 13 14 16 18
12 12 11 9 8 7 6 6 5 6 6 7 8 10 11 12 13 14 14 13 13 14 15 15 16 17 17 17 17 16 16 15 15 15 15 15 16 15 15 16 16 17 18
13 13 12 11 10 9 7 7 7 7 7 7 8 9 11 11 13 14 14 14 14 14 15 15 16 17 17 17 17 18 18 18 18 19 19 20 20 21 21 21 21 21 22
14 14 13 13 12 11 10 9 9 9 8 9 9 10 11 12 13 14 15 15 15 15 15 16 17 17 18 18 19 20 20 20 21 21 22 23 24 24 24 25 26 27 27
15 15 15 15 14 13 12 11 11 11 11 11 11 12 12 14 15 15 16 16 17 17 17 17 18 18 19 20 20 21 22 23 24 24 25 26 27 28 28 29 30 31 32
16 16 16 16 15 14 13 12 12 12 12 13 13 14 14 15 17 17 17 18 19 19 18 19 20 21 21 22 23 24 25 26 27 28 29 30 31 31 32 33 33 35 35
18 18 18 18 17 16 16 15 13 14 14 14 14 15 16 17 18 19 19 19 20 20 20 21 22 23 24 25 26 27 28 29 30 30 31 32 34 34 35 35 36 37 38
20 19 19 19 19 19 18 18 17 16 16 16 17 17 18 19 19 20 21 21 22 22 22 23 24 25 26 27 28 29 30 31 32 33 33 34 35 36 36 37 38 39 39
21 21 20 20 20 19 19 19 19 19 19 18 18 19 19 20 21 21 22 23 23 24 24 25 26 27 28 29 30 31 32 33 34 35 35 35 36 37 38 39 39 40 40
22 22 21 21 20 20 20 19 19 19 19 19 19 20 21 22 22 23 24 24 24 25 26 27 27 28 29 31 32 33 34 35 36 36 37 38 39 39 39 39 40 40 40
24 23 22 21 21 20 20 20 20 19 20 20 20 21 22 22 23 24 24 25 25 26 27 28 29 30 31 33 34 35 36 37 38 39 39 39 40 39 39 39 39 39 39
24 23 23 22 21 20 20 20 20 20 20 20 20 22 23 24 24 24 25 26 26 27 28 29 30 32 33 35 36 37 38 39 39 40 40 40 40 39 39 39 39 39 40
22 22 21 21 20 20 20 20 20 20 20 21 21 23 23 23 24 25 26 27 28 29 30 31 32 34 35 37 38 39 39 39 40 40 40 40 40 39 39 39 39 39 39
19 20 21 20 20 20 20 20 20 20 20 21 22 23 24 25 25 26 27 28 29 30 32 33 34 36 37 39 39 39 39 40 40 41 40 40 39 39 38 38 38 38 38
19 19 19 19 19 20 19 20 20 21 21 22 23 24 25 25 26 27 28 29 30 32 33 35 36 37 39 39 40 39 39 40 40 40 40 39 38 37 37 37 36 37 36
18 18 18 18 19 19 19 20 20 21 22 23 24 24 25 26 27 28 29 31 32 34 35 36 37 38 39 40 39 39 40 40 39 39 39 39 36 35 35 33 33 34 34
16 17 18 18 18 19 20 20 21 22 23 23 24 25 26 26 28 29 31 32 34 35 36 37 38 38 39 39 38 39 39 38 38 37 37 36 34 33 32 32 31 32 32
Wind_Direction
321 326 331 336 340 342 350 358 3 8 10 6 4 5 7 5 4 3 3 356 346 314 282 267 258 254 251 250 251 251 246 247 246 244 244 245 247 251 258 250 248 249 248
320 326 332 338 349 355 357 1 10 18 23 26 24 22 20 21 23 22 20 17 16 14 2 327 287 264 255 254 252 250 247 245 247 242 242 243 243 244 248 258 241 246 245
316 326 338 346 354 0 8 15 19 22 24 28 33 36 35 33 33 32 33 32 33 31 25 16 7 324 283 268 259 252 248 245 246 243 242 244 243 244 243 254 251 248 254
309 323 337 346 352 2 12 20 28 30 32 35 36 37 39 41 41 41 41 40 41 40 37 36 30 27 7 329 293 267 254 246 246 246 244 244 242 245 241 249 253 252 255
297 307 328 336 347 358 13 24 29 33 35 38 39 39 41 42 41 42 43 45 46 46 45 43 40 37 37 36 25 3 299 254 248 250 248 247 248 246 248 253 252 252 258
282 299 313 340 358 7 16 25 30 33 35 37 38 39 40 41 42 44 45 46 46 45 43 41 42 42 43 44 42 38 29 340 277 261 255 255 259 255 255 253 253 249 259
267 277 297 312 337 359 11 25 31 34 35 37 38 38 39 39 39 43 45 47 47 47 45 44 43 41 40 40 45 45 40 35 15 313 283 281 272 269 265 262 258 253 254
253 257 268 284 314 339 9 20 26 30 33 35 36 36 37 37 38 40 42 44 44 44 43 42 42 41 40 40 39 37 37 37 35 22 2 325 294 285 277 274 266 258 253
248 247 248 254 274 298 332 359 10 16 21 25 29 31 33 33 34 35 37 38 39 38 38 38 38 37 36 35 36 34 32 27 22 19 16 1 343 324 310 287 283 274 264
244 241 244 246 253 271 288 319 343 351 1 8 15 20 24 25 26 27 26 27 28 28 27 27 27 27 26 25 24 21 18 14 10 8 4 358 349 340 330 317 302 293 281
243 241 240 243 248 260 275 285 307 327 342 350 360 4 6 10 11 13 14 13 13 12 12 11 11 11 11 10 9 5 1 354 351 348 344 340 338 333 329 323 316 303 300
240 240 238 242 245 253 267 279 292 303 319 329 338 344 349 351 355 355 357 357 355 355 356 356 355 356 356 356 355 353 349 344 339 336 334 332 328 325 321 316 312 309 300
239 239 240 241 246 252 262 274 283 294 302 313 322 328 333 337 338 342 342 341 341 338 338 341 342 343 343 342 344 343 339 336 333 330 328 324 322 318 316 314 311 308 303
239 240 242 242 246 252 260 270 279 287 293 301 306 315 320 325 327 328 330 330 329 328 326 328 330 331 332 331 332 332 332 330 328 325 323 319 317 316 313 311 309 306 302
242 243 243 243 247 250 258 266 274 285 291 293 301 305 309 315 319 320 320 322 322 322 320 321 323 324 324 325 325 325 325 324 323 321 319 318 316 314 312 311 308 307 304
244 244 245 244 246 250 255 262 272 279 288 294 298 302 305 310 314 315 315 315 318 318 317 317 318 319 319 319 319 319 318 319 318 316 315 314 314 312 310 309 308 307 305
246 245 245 247 248 251 256 260 266 274 281 288 295 300 303 307 312 314 314 312 315 314 313 314 314 315 315 315 315 315 315 314 314 313 312 311 311 310 308 308 307 306 305
247 245 246 248 250 253 257 263 267 272 276 283 290 295 301 305 308 312 313 311 311 313 313 313 313 313 313 313 314 314 313 313 312 311 310 309 309 308 307 307 306 305 304
245 246 247 249 251 254 259 263 267 272 278 282 287 294 300 301 302 307 310 310 310 311 312 312 312 312 312 313 313 313 313 312 311 311 310 308 308 307 306 306 305 305 304
245 244 246 250 251 254 259 263 268 272 278 283 287 294 296 299 301 304 306 308 310 310 311 311 312 312 312 313 313 312 312 312 311 311 310 309 308 306 305 305 305 304 303
243 245 247 249 251 254 259 264 268 273 277 283 287 293 296 298 301 303 305 307 308 309 310 310 311 311 312 312 312 312 312 312 311 311 310 309 308 306 306 305 305 304 303
243 243 245 247 250 255 259 264 269 273 278 283 287 293 296 298 301 302 304 306 307 309 310 310 311 311 312 312 312 312 312 312 311 311 311 309 308 306 306 305 305 305 304
243 244 244 249 252 255 261 266 269 273 279 284 289 293 296 298 300 302 304 305 307 309 310 310 311 311 312 313 312 312 311 311 312 311 311 310 309 307 307 307 306 307 307
245 248 246 249 253 258 261 265 270 276 281 285 290 293 296 298 300 302 304 306 308 309 310 310 311 312 312 312 313 312 311 312 312 311 311 311 309 307 307 307 307 308 308
247 247 248 252 256 260 265 269 274 278 282 287 290 293 296 297 299 302 304 306 307 309 310 310 311 312 312 313 313 312 312 312 312 311 312 312 309 308 308 307 309 310 310
248 249 252 256 260 264 269 272 277 281 285 288 291 293 295 297 300 302 304 306 308 309 310 311 311 312 313 313 313 313 313 313 312 311 312 312 310 309 308 308 309 311 311